{"data":{"norad_id":47587,"intl_designator":"2021-009AR","name":"STARLINK-1991","alt_names":[],"object_type":"PAYLOAD","status":"ACTIVE","operator":null,"country":"US","launch_date":"2021-02-04","launch_site_code":"AFETR","launch_vehicle":null,"mission":null,"orbit_class":"UNKNOWN","rcs_meters":null,"size_class":null,"mass_kg":null,"dimensions":null,"purposes":["comms"],"wikipedia_slug":null,"has_3d_model":false,"image_url":null,"decayed_at":null,"tle_current":{"epoch":"2026-05-25T03:58:26.062752Z","epoch_age_seconds":57404,"freshness":"FRESH","line1":"1 47587U 21009AR  26145.16557943  .00235708  00000+0  86386-3 0  9999","line2":"2 47587  53.0389 311.2513 0005441 277.7705  82.2701 15.87159944293542","mean_motion":15.87159944,"eccentricity":0.0005441,"inclination_deg":53.0389,"raan_deg":311.2513,"arg_perigee_deg":277.7705,"mean_anomaly_deg":82.2701,"bstar":0.00086386,"rev_number":29354,"period_min":90.728096147064,"perigee_km":306.61060682022,"apogee_km":313.88890929033,"semimajor_km":6688.3867580553,"source":"CELESTRAK","updated_at":"2026-05-25T13:38:16.557360Z"}}}